Wilkerson Pass, CO

3:18 AM MDT on May 25, 2017 (GMT -0600)
Wilkerson Pass

Weather History for K4BM - April, 2014

Change the Weather History Date:

Monday, April 7, 2014

  Actual Average (KAFF) Record (KAFF)
Temperature  
Mean Temperature 22 °F -  
Max Temperature 30 °F 51 °F 73 °F (2017)
Min Temperature 15 °F 27 °F 19 °F (2007)
Degree Days  
Heating Degree Days 42    
Moisture  
Dew Point 12 °F    
Average Humidity 65    
Maximum Humidity 86    
Minimum Humidity 40    
Precipitation  
Precipitation 0.00 in - - ()
Sea Level Pressure  
Sea Level Pressure 30.18 in    
Wind  
Wind Speed 11 mph (NNW)    
Max Wind Speed 18 mph    
Max Gust Speed 43 mph    
Visibility 10 miles    
Events      
Averages and records for this station are not official NWS values.
T = Trace of Precipitation, MM = Missing Value Source: NWS Daily Summary

Daily Weather History Graph

Daily Weather History Graph

Search for Another Location

Airport or City:

Trip Planner

Search our weather history database for the weather conditions in past years. The results will help you decide how hot, cold, wet, or windy it might be!

Date:

Astronomy

Apr. 07, 2014 Rise Set
Actual Time 6:37 AM MDT 7:31 PM MDT
Civil Twilight 6:10 AM MDT 7:58 PM MDT
Nautical Twilight 5:37 AM MDT 8:31 PM MDT
Astronomical Twilight 5:04 AM MDT 9:04 PM MDT
Moon 12:36 PM MDT (4/7) 2:09 AM MDT (4/7)
Length of Visible Light 13h 48m
Length of Day
12h 54m
First Quarter, 54% of the Moon is Illuminated
Apr 7
First Quarter
Apr 15
Full
Apr 22
Last Quarter
Apr 29
New
May 6
First Quarter

Hourly Weather History & Observations

Time (MDT) Temp. Windchill Dew Point Humidity Pressure Visibility Wind Dir Wind Speed Gust Speed Precip Events Conditions
12:15 AM 19.4 °F 6.6 °F 14.0 °F 80% 30.04 in 5.0 mi NNW 12.7 mph 29.9 mph N/A   Overcast
12:34 AM 19.4 °F 8.6 °F 14.0 °F 80% 30.05 in 10.0 mi NNW 9.2 mph 18.4 mph N/A   Overcast
12:55 AM 19.4 °F 11.5 °F 14.0 °F 80% 30.05 in 10.0 mi WNW 5.8 mph - N/A   Mostly Cloudy
1:15 AM 19.4 °F 6.6 °F 15.8 °F 86% 30.05 in 5.0 mi NNW 12.7 mph 20.7 mph N/A   Overcast
1:35 AM 17.6 °F 4.3 °F 14.0 °F 86% 30.05 in 5.0 mi North 12.7 mph 21.9 mph N/A   Overcast
1:55 AM 19.4 °F 7.9 °F 12.2 °F 74% 30.05 in 10.0 mi North 10.4 mph 20.7 mph N/A   Overcast
2:15 AM 19.4 °F 7.2 °F 12.2 °F 74% 30.05 in 10.0 mi North 11.5 mph 21.9 mph N/A   Overcast
2:35 AM 17.6 °F 6.4 °F 10.4 °F 73% 30.05 in 10.0 mi North 9.2 mph 23.0 mph N/A   Mostly Cloudy
2:55 AM 17.6 °F 8.2 °F 10.4 °F 73% 30.06 in 10.0 mi NNW 6.9 mph 19.6 mph N/A   Scattered Clouds
3:15 AM 17.6 °F 9.3 °F 10.4 °F 73% 30.05 in 10.0 mi NW 5.8 mph - N/A   Mostly Cloudy
3:34 AM 17.6 °F 6.4 °F 10.4 °F 73% 30.05 in 10.0 mi NNW 9.2 mph - N/A   Overcast
3:54 AM 17.6 °F 4.3 °F 12.2 °F 79% 30.06 in 10.0 mi North 12.7 mph 19.6 mph N/A   Overcast
4:14 AM 17.6 °F 5.7 °F 12.2 °F 79% 30.06 in 10.0 mi North 10.4 mph 18.4 mph N/A   Overcast
4:35 AM 17.6 °F 5.0 °F 10.4 °F 73% 30.06 in 10.0 mi North 11.5 mph 19.6 mph N/A   Overcast
4:55 AM 17.6 °F 5.7 °F 10.4 °F 73% 30.06 in 10.0 mi North 10.4 mph 19.6 mph N/A   Overcast
5:14 AM 17.6 °F 7.3 °F 10.4 °F 73% 30.07 in 10.0 mi NNW 8.1 mph 21.9 mph N/A   Overcast
5:34 AM 17.6 °F 8.2 °F 10.4 °F 73% 30.08 in 10.0 mi NNW 6.9 mph - N/A   Overcast
5:55 AM 15.8 °F 5.1 °F 12.2 °F 86% 30.08 in 10.0 mi NNW 8.1 mph 19.6 mph N/A   Overcast
6:14 AM 15.8 °F 5.1 °F 12.2 °F 86% 30.08 in 10.0 mi NNW 8.1 mph 19.6 mph N/A   Overcast
6:35 AM 15.8 °F 0.9 °F 12.2 °F 86% 30.09 in 10.0 mi North 15.0 mph 24.2 mph N/A   Mostly Cloudy
6:55 AM 15.8 °F 2.1 °F 12.2 °F 86% 30.10 in 10.0 mi North 12.7 mph 21.9 mph N/A   Scattered Clouds
7:14 AM 17.6 °F 5.7 °F 12.2 °F 79% 30.12 in 10.0 mi North 10.4 mph 16.1 mph N/A   Clear
7:34 AM 17.6 °F 6.4 °F 12.2 °F 79% 30.12 in 10.0 mi North 9.2 mph 16.1 mph N/A   Clear
7:55 AM 19.4 °F 8.6 °F 12.2 °F 74% 30.13 in 10.0 mi North 9.2 mph 18.4 mph N/A   Clear
8:14 AM 19.4 °F 8.6 °F 12.2 °F 74% 30.14 in 10.0 mi NNW 9.2 mph 17.3 mph N/A   Clear
8:35 AM 19.4 °F 8.6 °F 12.2 °F 74% 30.14 in 10.0 mi NNW 9.2 mph 16.1 mph N/A   Clear
8:54 AM 21.2 °F 13.6 °F 14.0 °F 74% 30.15 in 10.0 mi NNW 5.8 mph - N/A   Scattered Clouds
9:15 AM 23.0 °F 14.7 °F 12.2 °F 63% 30.17 in 10.0 mi North 6.9 mph - N/A   Scattered Clouds
9:35 AM 21.2 °F 12.6 °F 12.2 °F 68% 30.16 in 10.0 mi NNW 6.9 mph - N/A   Scattered Clouds
9:54 AM 23.0 °F 14.7 °F 12.2 °F 63% 30.17 in 10.0 mi NW 6.9 mph - N/A   Overcast
10:15 AM 21.2 °F 10.1 °F 12.2 °F 68% 30.17 in 5.0 mi NNW 10.4 mph 23.0 mph N/A   Haze
10:35 AM 23.0 °F 13.9 °F 12.2 °F 63% 30.18 in 10.0 mi NNW 8.1 mph 18.4 mph N/A   Scattered Clouds
10:55 AM 23.0 °F 11.1 °F 12.2 °F 63% 30.18 in 10.0 mi NNW 12.7 mph 27.6 mph N/A   Mostly Cloudy
11:15 AM 23.0 °F 12.4 °F 12.2 °F 63% 30.19 in 10.0 mi North 10.4 mph 27.6 mph N/A   Mostly Cloudy
11:35 AM 24.8 °F 15.3 °F 10.4 °F 54% 30.19 in 10.0 mi NW 9.2 mph 23.0 mph N/A   Scattered Clouds
11:54 AM 26.6 °F 16.8 °F 12.2 °F 55% 30.18 in 10.0 mi NNW 10.4 mph 27.6 mph N/A   Scattered Clouds
12:13 PM 26.6 °F 15.7 °F 8.6 °F 47% 30.19 in 10.0 mi NNW 12.7 mph 27.6 mph N/A   Mostly Cloudy
12:34 PM 26.6 °F 15.7 °F 10.4 °F 51% 30.19 in 10.0 mi NNW 12.7 mph 32.2 mph N/A   Overcast
12:54 PM 28.4 °F 17.5 °F 10.4 °F 47% 30.19 in 10.0 mi NW 13.8 mph 26.5 mph N/A   Mostly Cloudy
1:14 PM 30.2 °F 19.8 °F 8.6 °F 40% 30.19 in 10.0 mi NW 13.8 mph 26.5 mph N/A   Scattered Clouds
1:33 PM 28.4 °F 17.5 °F 8.6 °F 43% 30.19 in 10.0 mi NNW 13.8 mph 31.1 mph N/A   Scattered Clouds
2:14 PM 28.4 °F 18.5 °F 8.6 °F 43% 30.20 in 10.0 mi NNW 11.5 mph 27.6 mph N/A   Scattered Clouds
2:34 PM 30.2 °F 20.2 °F 8.6 °F 40% 30.21 in 10.0 mi NNW 12.7 mph 35.7 mph N/A   Scattered Clouds
2:54 PM 30.2 °F 18.9 °F 8.6 °F 40% 30.21 in 10.0 mi NW 16.1 mph 28.8 mph N/A   Scattered Clouds
3:14 PM 28.4 °F 16.6 °F 8.6 °F 43% 30.21 in 10.0 mi NNW 16.1 mph 34.5 mph N/A   Clear
3:34 PM 28.4 °F 16.6 °F 10.4 °F 47% 30.22 in 10.0 mi NNW 16.1 mph 34.5 mph N/A   Clear
3:54 PM 28.4 °F 18.5 °F 10.4 °F 47% 30.23 in 10.0 mi NNW 11.5 mph 20.7 mph N/A   Scattered Clouds
4:14 PM 28.4 °F 18.0 °F 10.4 °F 47% 30.23 in 10.0 mi NW 12.7 mph 25.3 mph N/A   Scattered Clouds
4:34 PM 26.6 °F 16.2 °F 10.4 °F 51% 30.24 in 10.0 mi NNW 11.5 mph 27.6 mph N/A   Clear
4:54 PM 28.4 °F 17.5 °F 10.4 °F 47% 30.23 in 10.0 mi NW 13.8 mph 28.8 mph N/A   Clear
5:14 PM 28.4 °F 17.5 °F 12.2 °F 51% 30.24 in 10.0 mi NW 13.8 mph 25.3 mph N/A   Clear
5:34 PM 26.6 °F 15.7 °F 12.2 °F 55% 30.24 in 10.0 mi NNW 12.7 mph 25.3 mph N/A   Clear
5:54 PM 26.6 °F 15.7 °F 12.2 °F 55% 30.26 in 10.0 mi NNW 12.7 mph 26.5 mph N/A   Clear
6:14 PM 28.4 °F 21.2 °F 12.2 °F 51% 30.27 in 10.0 mi NW 6.9 mph - N/A   Scattered Clouds
6:34 PM 26.6 °F 16.8 °F 14.0 °F 59% 30.27 in 10.0 mi NNW 10.4 mph 26.5 mph N/A   Mostly Cloudy
6:54 PM 24.8 °F 11.1 °F 12.2 °F 59% 30.27 in 10.0 mi NNW 18.4 mph 31.1 mph N/A   Scattered Clouds
7:14 PM 23.0 °F 10.6 °F 12.2 °F 63% 30.28 in 10.0 mi NW 13.8 mph 26.5 mph N/A   Clear
7:34 PM 23.0 °F 11.7 °F 10.4 °F 59% 30.28 in 10.0 mi NNW 11.5 mph 34.5 mph N/A   Clear
7:54 PM 23.0 °F 11.1 °F 12.2 °F 63% 30.28 in 10.0 mi NW 12.7 mph 23.0 mph N/A   Scattered Clouds
8:14 PM 23.0 °F 9.6 °F 14.0 °F 68% 30.28 in 10.0 mi NNW 16.1 mph 33.4 mph N/A   Mostly Cloudy
8:33 PM 23.0 °F 10.1 °F 14.0 °F 68% 30.28 in 10.0 mi NW 15.0 mph 33.4 mph N/A   Mostly Cloudy
8:54 PM 23.0 °F 10.1 °F 14.0 °F 68% 30.29 in 10.0 mi NW 15.0 mph 34.5 mph N/A   Scattered Clouds
9:14 PM 23.0 °F 10.6 °F 14.0 °F 68% 30.30 in 10.0 mi NW 13.8 mph 33.4 mph N/A   Scattered Clouds
9:34 PM 23.0 °F 10.6 °F 14.0 °F 68% 30.30 in 10.0 mi NNW 13.8 mph 28.8 mph N/A   Clear
9:54 PM 23.0 °F 10.6 °F 14.0 °F 68% 30.30 in 10.0 mi NW 13.8 mph 28.8 mph N/A   Clear
10:14 PM 24.8 °F 11.9 °F 14.0 °F 64% 30.30 in 10.0 mi NW 16.1 mph 42.6 mph N/A   Scattered Clouds
10:34 PM 24.8 °F 11.5 °F 15.8 °F 69% 30.30 in 10.0 mi NW 17.3 mph 33.4 mph N/A   Mostly Cloudy
10:54 PM 24.8 °F 13.4 °F 15.8 °F 69% 30.31 in 10.0 mi NNW 12.7 mph 33.4 mph N/A   Mostly Cloudy
11:14 PM 24.8 °F 11.9 °F 15.8 °F 69% 30.31 in 10.0 mi NW 16.1 mph 33.4 mph N/A   Scattered Clouds
11:34 PM 24.8 °F 14.6 °F 15.8 °F 69% 30.32 in 10.0 mi WNW 10.4 mph 26.5 mph N/A   Clear
11:54 PM 24.8 °F 12.9 °F 17.6 °F 74% 30.32 in 10.0 mi NW 13.8 mph 28.8 mph N/A   Clear